This demonstration page uses our WeatherBlox Daily Observations layout. Learn more.

Left ArrowRight Arrow

Hourly Observations for June 16, 2017

Temp ( °F °C ) Dew Point ( °F °C ) Humidity (%) Winds ( mph kmh ) Pressure ( in mb ) Visibility ( mi km ) Precip ( " mm )
12:15 am 00:15 Clear 69 20.8 51 10.8 53 53 Calm 29.77 1008 10 16.0934 0 0
12:35 am 00:35 Clear 70 21.1 51 10.8 52 52 Calm 29.77 1008 10 16.0934 0 0
12:55 am 00:55 Clear 67 19.2 51 10.7 58 58 Calm 29.77 1008 10 16.0934 0 0
1:15 am 01:15 Clear 68 19.9 53 11.5 59 59 Calm 29.77 1008 10 16.0934 0 0
1:35 am 01:35 Clear 68 19.8 54 12.3 62 62 S 3 6 29.77 1008 10 16.0934 0 0
1:55 am 01:55 Clear 66 19 56 13.5 71 71 Calm 29.77 1008 10 16.0934 0 0
2:15 am 02:15 Clear 66 18.7 57 13.8 73 73 S 6 9 29.77 1008 10 16.0934 0 0
2:35 am 02:35 Clear 64 17.6 57 13.7 78 78 Calm 29.77 1008 10 16.0934 0 0
2:55 am 02:55 Clear 62 16.5 56 13.5 83 83 Calm 29.77 1008 10 16.0934 0 0
3:15 am 03:15 Clear 63 17.2 57 14 82 82 Calm 29.8 1009 10 16.0934 0 0
3:35 am 03:35 Clear 60 15.5 57 14.1 91 91 N 6 9 29.8 1009 10 16.0934 0 0
3:55 am 03:55 Clear 62 16.5 58 14.5 88 88 Calm 29.77 1008 10 16.0934 0 0
4:15 am 04:15 Clear 63 17 58 14.6 86 86 Calm 29.77 1008 10 16.0934 0 0
4:35 am 04:35 Clear 63 17.4 59 15.1 86 86 Calm 29.8 1009 10 16.0934 0 0
4:55 am 04:55 Clear 64 18 60 15.7 87 87 S 5 7 29.77 1008 10 16.0934 0 0
5:15 am 05:15 Clear 66 18.9 60 15.8 82 82 S 6 9 29.77 1008 10 16.0934 0 0
5:35 am 05:35 Clear 66 18.8 60 15.8 83 83 SSW 6 9 29.77 1008 10 16.0934 0 0
5:55 am 05:55 Clear 66 18.8 61 16 84 84 S 3 6 29.77 1008 10 16.0934 0 0
6:15 am 06:15 Sunny 65 18.6 61 16 85 85 Calm 29.74 1007 10 16.0934 0 0
6:35 am 06:35 Sunny 66 18.9 61 16.1 84 84 S 3 6 29.74 1007 10 16.0934 0 0
6:55 am 06:55 Sunny 66 18.7 61 16.1 85 85 Calm 29.74 1007 10 16.0934 0 0
7:15 am 07:15 Sunny 65 18.2 61 16.1 88 88 Calm 29.74 1007 10 16.0934 0 0
7:35 am 07:35 Sunny 65 18.6 62 16.4 87 87 Calm 29.74 1007 10 16.0934 0 0
7:55 am 07:55 Sunny 67 19.3 62 16.5 84 84 Calm 29.74 1007 10 16.0934 0 0
8:15 am 08:15 Sunny 69 20.6 62 16.8 79 79 S 3 6 29.74 1007 10 16.0934 0 0
8:35 am 08:35 Sunny 72 22 62 16.7 72 72 S 5 7 29.71 1006 10 16.0934 0 0
8:55 am 08:55 Sunny 73 23 62 16.7 68 68 SSE 6 9 29.68 1005 10 16.0934 0 0
9:15 am 09:15 Sunny 75 23.8 62 16.6 64 64 S 6 9 29.68 1005 10 16.0934 0 0
9:35 am 09:35 Sunny 76 24.5 61 16 59 59 S 3 6 29.68 1005 10 16.0934 0 0
9:55 am 09:55 Sunny 77 25.2 61 16.1 57 57 SSE 3 6 29.65 1004 10 16.0934 0 0
10:15 am 10:15 Sunny 79 26 62 16.5 56 56 S 8 13 29.65 1004 10 16.0934 0 0
10:35 am 10:35 Sunny 80 26.8 62 16.4 53 53 S 8 13 29.65 1004 10 16.0934 0 0
10:55 am 10:55 Sunny 82 28 62 16.4 49 49 S 7 11 29.65 1004 10 16.0934 0 0
11:15 am 11:15 Sunny 83 28.1 62 16.5 49 49 S 9 15 29.65 1004 10 16.0934 0 0
11:35 am 11:35 Sunny 84 29.1 63 17.1 48 48 SSW 8 13 29.62 1003 10 16.0934 0 0
11:55 am 11:55 Sunny 85 29.6 60 15.6 43 43 SSW 7 11 29.62 1003 10 16.0934 0 0
12:15 pm 12:15 Sunny 86 30 61 16 43 43 S 7 11 29.62 1003 10 16.0934 0 0
12:35 pm 12:35 Sunny 88 30.9 61 15.9 40 40 SSE 6 9 29.59 1002 10 16.0934 0 0
12:55 pm 12:55 Sunny 89 31.6 60 15.5 38 38 S 8 13 29.59 1002 10 16.0934 0 0
1:15 pm 13:15 Sunny 89 31.7 61 16.3 40 40 S 6 9 29.59 1002 10 16.0934 0 0
1:35 pm 13:35 Sunny 91 32.6 60 15.7 36 36 SSW 9 15 29.56 1001 10 16.0934 0 0
1:55 pm 13:55 Sunny 91 32.6 59 15.2 35 35 SSW 10 17 29.53 1000 10 16.0934 0 0
2:15 pm 14:15 Sunny 91 32.5 61 15.9 37 37 SSW 10 17 29.53 1000 10 16.0934 0 0
2:35 pm 14:35 Sunny 91 32.8 62 16.5 38 38 S 13 20 29.53 1000 10 16.0934 0 0
2:55 pm 14:55 Sunny 93 33.8 61 16 34 34 S 12 19 29.53 1000 10 16.0934 0 0
3:15 pm 15:15 Sunny 91 33 60 15.5 35 35 S 10 17 29.5 999 10 16.0934 0 0
3:35 pm 15:35 Sunny 93 33.7 58 14.5 31 31 SSW 10 17 29.5 999 10 16.0934 0 0
3:55 pm 15:55 Sunny 94 34.2 59 15.2 32 32 SSW 14 22 29.5 999 10 16.0934 0 0
4:15 pm 16:15 Sunny 94 34.3 59 14.9 31 31 SSW 17 28 29.5 999 10 16.0934 0 0
4:35 pm 16:35 Sunny 92 33.5 60 15.3 33 33 S 17 28 29.5 999 10 16.0934 0 0
4:55 pm 16:55 Mostly Cloudy 92 33.1 60 15.7 35 35 S 13 20 29.5 999 10 16.0934 0 0
5:15 pm 17:15 Partly Cloudy 93 33.9 54 12.4 27 27 SSW 17 28 29.47 998 10 16.0934 0 0
5:35 pm 17:35 Sunny 93 33.8 56 13.1 28 28 SSW 13 20 29.47 998 10 16.0934 0 0
5:55 pm 17:55 Sunny 94 34.4 55 12.6 27 27 SSW 13 20 29.47 998 10 16.0934 0 0
6:15 pm 18:15 Sunny 93 33.7 57 13.8 30 30 SSW 13 20 29.44 997 10 16.0934 0 0
6:35 pm 18:35 Sunny 93 34 59 14.9 32 32 SSW 13 20 29.44 997 10 16.0934 0 0
6:55 pm 18:55 Sunny 92 33.3 61 15.9 35 35 SW 9 15 29.44 997 10 16.0934 0 0
7:15 pm 19:15 Sunny 92 33.6 61 15.9 35 35 SSW 12 19 29.44 997 10 16.0934 0 0
7:35 pm 19:35 Sunny 90 32.4 60 15.6 36 36 WSW 6 9 29.44 997 10 16.0934 0 0
7:55 pm 19:55 Sunny 90 32.4 59 15.2 35 35 WSW 6 9 29.44 997 10 16.0934 0 0
8:15 pm 20:15 Sunny 89 31.8 60 15.3 37 37 W 5 7 29.44 997 10 16.0934 0 0
8:35 pm 20:35 Sunny 87 30.8 60 15.7 40 40 W 7 11 29.44 997 10 16.0934 0 0
8:55 pm 20:55 Sunny 85 29.6 59 14.9 41 41 W 7 11 29.47 998 10 16.0934 0 0
9:15 pm 21:15 Clear 83 28.2 58 14.7 44 44 N 18 30 29.47 998 10 16.0934 0 0
9:35 pm 21:35 Clear 77 25.2 59 15 53 53 NNE 17 28 29.53 1000 10 16.0934 0 0
9:55 pm 21:55 Clear 76 24.6 58 14.3 53 53 NNE 16 26 29.53 1000 10 16.0934 0 0
10:15 pm 22:15 Clear 75 23.9 57 14.1 54 54 NNE 14 22 29.56 1001 10 16.0934 0 0
10:35 pm 22:35 Clear 74 23.4 58 14.2 56 56 NNE 13 20 29.59 1002 10 16.0934 0 0
10:55 pm 22:55 Clear 73 22.6 58 14.5 60 60 NNE 12 19 29.59 1002 10 16.0934 0 0
11:15 pm 23:15 Clear 72 22.2 59 14.9 63 63 NNE 12 19 29.59 1002 10 16.0934 0 0
11:35 pm 23:35 Clear 71 21.8 59 15.2 66 66 NNE 10 17 29.59 1002 10 16.0934 0 0
11:55 pm 23:55 Clear 70 21.2 60 15.5 70 70 NNE 8 13 29.59 1002 10 16.0934 0 0

Powered by AerisWeather